Weather History for Havre, MT

Change the Weather History Date:

Saturday, May 11, 2013

  Actual Average Record
Temperature  
Mean Temperature 58 °F 52 °F  
Max Temperature 80 °F 66 °F 89 °F (1958)
Min Temperature 36 °F 39 °F 22 °F (1895)
Degree Days  
Heating Degree Days 7 13  
Month to date heating degree days 152 158  
Since 1 July heating degree days 7754 7895  
Cooling Degree Days 0 0  
Month to date cooling degree days 0 0  
Year to date cooling degree days 0 1  
Growing Degree Days 8 (Base 50)    
Moisture  
Dew Point 30 °F    
Average Humidity 37    
Maximum Humidity 54    
Minimum Humidity 19    
Precipitation  
Precipitation 0.00 in 0.05 in 0.93 in (2000)
Month to date precipitation 0.01 0.50  
Year to date precipitation 2.73 2.49  
Snow  
Snow 0.00 in 0.10 in 3.10 in (2004)
Month to date snowfall 0.0 0.6  
Since 1 July snowfall 50.6 37.8  
Snow Depth 0.00 in    
Sea Level Pressure  
Sea Level Pressure 30.16 in    
Wind  
Wind Speed 10 mph (ENE)    
Max Wind Speed 16 mph    
Max Gust Speed 21 mph    
Visibility 10 miles    
Events      
T = Trace of Precipitation, MM = Missing Value Source: NWS Daily Summary

Daily Weather History Graph

Daily Weather History Graph

Search for Another Location

Airport:

Trip Planner

Search our weather history database for the weather conditions in past years. The results will help you decide how hot, cold, wet, or windy it might be!

Date:

Astronomy

May. 11, 2013 Rise Set
Actual Time 5:43 AM MDT 8:48 PM MDT
Civil Twilight 5:06 AM MDT 9:25 PM MDT
Nautical Twilight 4:18 AM MDT 10:13 PM MDT
Astronomical Twilight 3:19 AM MDT 11:13 PM MDT
Moon 6:51 AM MDT (5/11) 10:34 PM MDT (5/11)
Length of Visible Light 16h 18m
Length of Day
15h 04m
Waxing Crescent, 3% of the Moon is Illuminated
May 11
Waxing Crescent
May 17
First Quarter
May 24
Full
May 31
Last Quarter
Jun 8
New

Hourly Weather History & Observations

Time (MDT) Temp. Windchill Dew Point Humidity Pressure Visibility Wind Dir Wind Speed Gust Speed Precip Events Conditions
12:53 AM 41.0 °F 35.8 °F 25.0 °F 53% 30.41 in 10.0 mi East 8.1 mph - N/A   Clear
1:53 AM 42.1 °F 36.1 °F 25.0 °F 51% 30.40 in 10.0 mi ENE 10.4 mph - N/A   Scattered Clouds
2:53 AM 44.1 °F 38.1 °F 21.9 °F 42% 30.38 in 10.0 mi East 11.5 mph - N/A   Overcast
3:53 AM 42.1 °F 34.9 °F 23.0 °F 47% 30.36 in 10.0 mi ENE 13.8 mph - N/A   Scattered Clouds
4:53 AM 39.0 °F 31.8 °F 23.0 °F 53% 30.35 in 10.0 mi ENE 11.5 mph - N/A   Clear
5:53 AM 37.0 °F 31.0 °F 23.0 °F 57% 30.33 in 10.0 mi ENE 8.1 mph - N/A   Clear
6:53 AM 39.0 °F 31.8 °F 24.1 °F 55% 30.32 in 10.0 mi ENE 11.5 mph - N/A   Clear
7:53 AM 45.0 °F 38.9 °F 26.1 °F 48% 30.30 in 10.0 mi ENE 12.7 mph - N/A   Clear
8:53 AM 52.0 °F - 27.0 °F 38% 30.27 in 10.0 mi East 12.7 mph - N/A   Clear
9:53 AM 59.0 °F - 28.0 °F 31% 30.25 in 10.0 mi NE 9.2 mph - N/A   Clear
10:53 AM 64.0 °F - 30.0 °F 28% 30.19 in 10.0 mi ENE 12.7 mph - N/A   Clear
11:53 AM 70.0 °F - 28.9 °F 22% 30.17 in 10.0 mi WNW 4.6 mph - N/A   Clear
12:53 PM 70.0 °F - 28.9 °F 22% 30.14 in 10.0 mi West 6.9 mph - N/A   Clear
1:53 PM 72.0 °F - 30.0 °F 21% 30.12 in 10.0 mi Calm Calm - N/A   Clear
2:53 PM 75.9 °F - 30.9 °F 19% 30.07 in 10.0 mi SW 13.8 mph 18.4 mph N/A   Partly Cloudy
3:53 PM 77.0 °F - 32.0 °F 19% 30.04 in 10.0 mi SW 16.1 mph - N/A   Clear
5:53 PM 78.1 °F - 33.1 °F 19% 30.00 in 10.0 mi Calm Calm - N/A   Clear
6:53 PM 79.0 °F - 34.0 °F 20% 29.98 in 10.0 mi ESE 3.5 mph - N/A   Mostly Cloudy
7:53 PM 73.4 °F - 37.4 °F 27% 29.98 in 10.0 mi East 11.5 mph - N/A   Clear
8:53 PM 66.0 °F - 39.9 °F 38% 29.97 in 10.0 mi East 8.1 mph - N/A   Clear
9:53 PM 62.1 °F - 39.0 °F 43% 29.97 in 10.0 mi ENE 10.4 mph - N/A   Clear
10:53 PM 60.1 °F - 37.0 °F 42% 29.96 in 10.0 mi ENE 11.5 mph - N/A   Clear
11:53 PM 55.9 °F - 36.0 °F 47% 29.96 in 10.0 mi ENE 12.7 mph - N/A   Clear